This is the latest recevied weather packets stored in our database for station/object N0EDB-13. If no packets are shown the sender has not sent any weather packets the latest 10 day(s).
| Time | Temp. | Humidity | Pressure | Rain* | Wind** | Luminosity | Snow |
|---|---|---|---|---|---|---|---|
| 1777708306 | 4.44° C | 55% | 1526.2 hPa | 0 mm | - | 0 W/m² | - |
| 1777708005 | 4.44° C | 54% | 1526 hPa | 0 mm | - | 0 W/m² | - |
| 1777707704 | 5° C | 53% | 1525.3 hPa | 0 mm | - | 0 W/m² | - |
| 1777707403 | 5° C | 52% | 1524.7 hPa | 0 mm | - | 0 W/m² | - |
| 1777707103 | 5.56° C | 53% | 1524.3 hPa | 0 mm | - | 0 W/m² | - |
| 1777706802 | 5.56° C | 53% | 1523.8 hPa | 0 mm | - | 0 W/m² | - |
| 1777706501 | 5.56° C | 53% | 1523.6 hPa | 0 mm | - | 0 W/m² | - |
| 1777706200 | 5.56° C | 54% | 1523.5 hPa | 0 mm | - | 0 W/m² | - |
| 1777705900 | 5.56° C | 54% | 1523.4 hPa | 0 mm | - | 0 W/m² | - |
| 1777705599 | 5.56° C | 52% | 1523.5 hPa | 0 mm | - | 0 W/m² | - |
| 1777705298 | 5.56° C | 50% | 1523.7 hPa | 0 mm | - | 0 W/m² | - |
| 1777704998 | 5.56° C | 50% | 1523.5 hPa | 0 mm | - | 0 W/m² | - |
| 1777704698 | 5.56° C | 50% | 1523.1 hPa | 0 mm | - | 0 W/m² | - |
| 1777704397 | 6.11° C | 50% | 1522.6 hPa | 0 mm | - | 0 W/m² | - |
| 1777704096 | 6.11° C | 47% | 1522 hPa | 0 mm | - | 0 W/m² | - |
| 1777703795 | 6.67° C | 48% | 1521.4 hPa | 0 mm | - | 0 W/m² | - |
| 1777703494 | 6.67° C | 51% | 1521 hPa | 0 mm | - | 0 W/m² | - |
| 1777703194 | 6.67° C | 52% | 1520.3 hPa | 0 mm | - | 0 W/m² | - |
| 1777702893 | 7.22° C | 52% | 1519.6 hPa | 0 mm | - | 0 W/m² | - |
| 1777702593 | 7.22° C | 52% | 1519.3 hPa | 0 mm | - | 0 W/m² | - |
| 1777702293 | 7.22° C | 45% | 1518.7 hPa | 0 mm | - | 0 W/m² | - |
| 1777701992 | 7.78° C | 42% | 1517.6 hPa | 0 mm | - | 0 W/m² | - |
| 1777701692 | 7.78° C | 40% | 1517 hPa | 0 mm | - | 0 W/m² | - |
| 1777701391 | 7.78° C | 40% | 1516.8 hPa | 0 mm | - | 0 W/m² | - |
| 1777701090 | 7.78° C | 40% | 1516.3 hPa | 0 mm | - | 0 W/m² | - |
* Rain latest hour (hover to see other rain measurements)
** Current wind speed in m/s (hover to see current wind gust speed)